Home   Weather   Rawalpindi   Past weeks

Flag for Pakistan Past Weather in Rawalpindi, Pakistan — Yesterday and Last 2 Weeks

Now
73 °F

Fog.


Feels Like: 73 °F
Forecast: 73 / 96 °F
Wind: 5 mph from East

Location: Islamabad Airport

Current Time: Sep 26, 2016 at 8:44:31 AM

Latest Report: Sep 26, 2016 at 7:30 AM


Visibility: 2 mi

Pressure: 29.83 "Hg (28.15 "Hg at 501m altitude)

Humidity: 83%

Dew Point: 68 °F

Location of RawalpindiLocation

Past Weather in Rawalpindi — Graph

°F

Rawalpindi Temperature Yesterday

Maximum temperature yesterday: 93 °F (at 3:00 PM)
Minimum temperature yesterday: 73 °F (at 6:30 AM)
Average temperature yesterday: 85 °F

High & Low Weather Summary for the Past Weeks

 TemperatureHumidityPressure
High97 °F (Sep 11, 2:00 PM)100% (Sep 21, 9:00 AM)29.95 "Hg (Sep 21, 9:00 AM)
Low72 °F (Sep 12, 5:00 AM)30% (Sep 14, 2:00 PM)29.62 "Hg (Sep 11, 4:00 PM)
Average84 °F63%29.77 "Hg
* Reported Sep 11 7:00 AM — Sep 26 7:30 AM, Rawalpindi, Weather by CustomWeather, © 2016

Note: Actual official high and low records may vary slightly from our data, if they occured in-between our weather recording intervals... More about our weather records

Advertising

Rawalpindi Weather History for the Previous 24 Hours

Scroll right to see more
 ConditionsComfort  
Time TempWeatherWind HumidityBarometerVisibility
7:30 AM
Mon, Sep 26
73 °FFog.5 mph83%29.83 "Hg1 mi
5:00 AM75 °FHaze.7 mph78%29.77 "Hg2 mi
4:30 AM75 °FHaze.7 mph78%29.74 "Hg2 mi
4:00 AM75 °FHaze.7 mph78%29.74 "Hg2 mi
3:30 AM77 °FHaze.5 mph74%29.74 "Hg2 mi
2:30 AM79 °FHaze.5 mph74%29.74 "Hg2 mi
2:00 AM79 °FHaze.5 mph74%29.74 "Hg2 mi
1:30 AM79 °FHaze.5 mph74%29.74 "Hg2 mi
1:00 AM79 °FHaze.5 mph74%29.74 "Hg2 mi
12:00 AM79 °FHaze.5 mph79%29.74 "Hg2 mi
11:30 PM
Sun, Sep 25
81 °FHaze.7 mph74%29.74 "Hg2 mi
11:00 PM81 °FHaze.7 mph74%29.74 "Hg2 mi
10:00 PM82 °FHaze.7 mph66%29.77 "Hg2 mi
9:30 PM84 °FHaze.9 mph62%29.74 "Hg2 mi
9:00 PM84 °FHaze.9 mph62%29.74 "Hg2 mi
8:30 PM84 °FHaze.9 mph58%29.74 "Hg2 mi
8:00 PM84 °FHaze.9 mph58%29.74 "Hg2 mi
7:00 PM88 °FHaze.9 mph49%29.71 "Hg2 mi
6:30 PM90 °FHaze.9 mph46%29.71 "Hg2 mi
6:00 PM90 °FHaze.9 mph46%29.71 "Hg2 mi
5:30 PM91 °FHaze.N/A44%29.71 "Hg2 mi
5:00 PM91 °FHot.N/A44%29.71 "HgN/A
4:00 PM93 °FScattered clouds.9 mph47%29.71 "Hg2 mi
3:30 PM93 °FScattered clouds.12 mph49%29.74 "Hg2 mi
3:00 PM93 °FScattered clouds.12 mph49%29.74 "Hg2 mi
2:30 PM91 °FScattered clouds.N/A52%29.77 "Hg2 mi
2:00 PM91 °FScattered clouds.12 mph52%29.77 "Hg2 mi
1:30 PM90 °FScattered clouds.9 mph52%29.80 "Hg2 mi
1:00 PM90 °FScattered clouds.9 mph52%29.80 "Hg2 mi
12:30 PM88 °FScattered clouds.9 mph59%29.83 "Hg2 mi
12:00 PM88 °FHaze.9 mph59%29.83 "Hg2 mi
11:30 AM86 °FHaze.5 mph59%29.83 "Hg2 mi
11:00 AM86 °FHaze.5 mph59%29.83 "Hg2 mi
10:30 AM84 °FHaze.7 mph66%29.86 "Hg2 mi
10:00 AM84 °FHaze.7 mph66%29.86 "Hg2 mi
9:30 AM81 °FHaze.7 mph66%29.86 "Hg2 mi
9:00 AM81 °FHaze.7 mph66%29.86 "Hg2 mi
8:30 AM77 °FHaze.7 mph79%29.83 "Hg2 mi
8:00 AM77 °FScattered clouds.7 mph79%29.83 "Hg2 mi
Weather by CustomWeather, © 2016

See weather overviewHow to use our weather pages